Time,TemperatureF,DewpointF,PressureIn,WindDirection,WindDirectionDegrees,WindSpeedMPH,WindSpeedGustMPH,Humidity,HourlyPrecipIn,Conditions,Clouds,dailyrainin,SoftwareType,DateUTC
2013-08-31 00:01:00,69.6,69.6,29.89,SSW,205,0.0,0.0,100,0.00,,,0.00,VWS V14.01,2013-08-31 04:01:00,
2013-08-31 00:02:00,69.6,69.6,29.89,SSW,205,0.0,0.0,100,0.00,,,0.00,VWS V14.01,2013-08-31 04:02:00,
2013-08-31 00:07:00,69.6,69.6,29.90,SSW,205,0.0,0.0,100,0.00,,,0.00,VWS V14.01,2013-08-31 04:07:00,
2013-08-31 00:12:00,69.6,69.6,29.89,SSW,205,0.0,0.0,100,0.00,,,0.00,VWS V14.01,2013-08-31 04:12:00,
2013-08-31 00:17:00,69.6,69.6,29.89,SSW,205,0.0,0.0,100,0.00,,,0.00,VWS V14.01,2013-08-31 04:17:00,
2013-08-31 00:22:00,69.7,69.7,29.89,SSW,205,0.0,0.0,100,0.00,,,0.00,VWS V14.01,2013-08-31 04:22:00,
2013-08-31 00:27:00,69.7,69.7,29.89,SSW,205,0.0,0.0,100,0.00,,,0.00,VWS V14.01,2013-08-31 04:27:00,
2013-08-31 00:33:00,69.7,69.7,29.89,SSW,205,0.0,0.0,100,0.00,,,0.00,VWS V14.01,2013-08-31 04:33:00,
2013-08-31 00:38:00,69.7,69.7,29.89,SSW,205,0.0,0.0,100,0.00,,,0.00,VWS V14.01,2013-08-31 04:38:00,
2013-08-31 00:43:00,69.7,69.7,29.88,SSW,205,0.0,0.0,100,0.00,,,0.00,VWS V14.01,2013-08-31 04:43:00,
2013-08-31 00:48:00,69.7,69.7,29.88,SSW,205,0.0,0.0,100,0.00,,,0.00,VWS V14.01,2013-08-31 04:48:00,
2013-08-31 00:53:00,69.7,69.7,29.89,SSW,205,0.0,0.0,100,0.00,,,0.00,VWS V14.01,2013-08-31 04:53:00,
2013-08-31 00:58:00,69.6,69.6,29.89,SSW,205,0.0,0.0,100,0.00,,,0.00,VWS V14.01,2013-08-31 04:58:00,
2013-08-31 01:03:00,69.6,69.6,29.89,SSW,205,0.0,0.0,100,0.00,,,0.00,VWS V14.01,2013-08-31 05:03:00,
2013-08-31 01:08:00,69.5,69.5,29.88,SSW,205,0.0,0.0,100,0.00,,,0.00,VWS V14.01,2013-08-31 05:08:00,
2013-08-31 01:13:00,69.4,69.4,29.88,SSW,205,0.0,0.0,100,0.00,,,0.00,VWS V14.01,2013-08-31 05:13:00,
2013-08-31 01:18:00,69.4,69.4,29.88,SSW,205,0.0,0.0,100,0.00,,,0.00,VWS V14.01,2013-08-31 05:18:00,
2013-08-31 01:23:00,69.5,69.5,29.89,SSW,205,0.0,0.0,100,0.00,,,0.00,VWS V14.01,2013-08-31 05:23:00,
2013-08-31 01:28:00,69.4,69.4,29.88,SSW,205,0.0,0.0,100,0.00,,,0.00,VWS V14.01,2013-08-31 05:28:00,
2013-08-31 01:33:00,69.3,69.3,29.88,SSW,205,0.0,0.0,100,0.00,,,0.00,VWS V14.01,2013-08-31 05:33:00,
2013-08-31 01:38:00,69.2,69.2,29.88,SSW,205,0.0,0.0,100,0.00,,,0.00,VWS V14.01,2013-08-31 05:38:00,
2013-08-31 01:43:00,69.2,69.2,29.89,SSW,205,0.0,0.0,100,0.00,,,0.00,VWS V14.01,2013-08-31 05:43:00,
2013-08-31 01:48:00,69.1,69.1,29.89,SSW,205,0.0,0.0,100,0.00,,,0.00,VWS V14.01,2013-08-31 05:48:00,
2013-08-31 01:53:00,68.9,68.9,29.88,SSW,205,0.0,0.0,100,0.00,,,0.00,VWS V14.01,2013-08-31 05:53:00,
2013-08-31 01:58:00,68.9,68.9,29.88,SSW,205,0.0,0.0,100,0.00,,,0.00,VWS V14.01,2013-08-31 05:58:00,
2013-08-31 02:03:00,68.8,68.8,29.88,SSW,205,0.0,0.0,100,0.00,,,0.00,VWS V14.01,2013-08-31 06:03:00,
2013-08-31 02:09:00,68.8,68.8,29.89,SSW,205,0.0,0.0,100,0.00,,,0.00,VWS V14.01,2013-08-31 06:09:00,
2013-08-31 02:14:00,68.8,68.8,29.88,SSW,205,0.0,0.0,100,0.00,,,0.00,VWS V14.01,2013-08-31 06:14:00,
2013-08-31 02:19:00,68.7,68.7,29.88,SSW,205,0.0,0.0,100,0.00,,,0.00,VWS V14.01,2013-08-31 06:19:00,
2013-08-31 02:24:00,68.6,68.6,29.87,SSW,205,0.0,0.0,100,0.00,,,0.00,VWS V14.01,2013-08-31 06:24:00,
2013-08-31 02:29:00,68.6,68.6,29.87,SSW,205,0.0,0.0,100,0.00,,,0.00,VWS V14.01,2013-08-31 06:29:00,
2013-08-31 02:34:00,68.6,68.6,29.88,SSW,205,0.0,0.0,100,0.00,,,0.00,VWS V14.01,2013-08-31 06:34:00,
2013-08-31 02:39:00,68.6,68.6,29.88,SSW,205,0.0,0.0,100,0.00,,,0.00,VWS V14.01,2013-08-31 06:39:00,
2013-08-31 02:44:00,68.5,68.5,29.88,SSW,205,0.0,0.0,100,0.00,,,0.00,VWS V14.01,2013-08-31 06:44:00,
2013-08-31 02:49:00,68.5,68.5,29.87,SSW,205,0.0,0.0,100,0.00,,,0.00,VWS V14.01,2013-08-31 06:49:00,
2013-08-31 02:54:00,68.5,68.5,29.87,SSW,205,0.0,0.0,100,0.00,,,0.00,VWS V14.01,2013-08-31 06:54:00,
2013-08-31 02:59:00,68.5,68.5,29.87,SSW,205,0.0,0.0,100,0.00,,,0.00,VWS V14.01,2013-08-31 06:59:00,
2013-08-31 03:04:00,68.5,68.5,29.87,SSW,205,0.0,0.0,100,0.00,,CLR,0.00,VWS V14.01,2013-08-31 07:04:00,
2013-08-31 03:09:00,68.6,68.6,29.86,SSW,205,0.0,0.0,100,0.00,,CLR,0.00,VWS V14.01,2013-08-31 07:09:00,
2013-08-31 03:14:00,68.5,68.5,29.86,SSW,205,0.0,0.0,100,0.00,,CLR,0.00,VWS V14.01,2013-08-31 07:14:00,
2013-08-31 03:19:00,68.6,68.6,29.87,SSW,205,0.0,0.0,100,0.00,,CLR,0.00,VWS V14.01,2013-08-31 07:19:00,
2013-08-31 03:24:00,68.6,68.6,29.87,SSW,205,0.0,0.0,100,0.00,,CLR,0.00,VWS V14.01,2013-08-31 07:24:00,
2013-08-31 03:29:00,68.7,68.7,29.87,SSW,205,0.0,0.0,100,0.00,,CLR,0.00,VWS V14.01,2013-08-31 07:29:00,
2013-08-31 03:34:00,68.6,68.6,29.87,SSW,205,0.0,0.0,100,0.00,,CLR,0.00,VWS V14.01,2013-08-31 07:34:00,
2013-08-31 03:39:00,68.6,68.6,29.87,SSW,205,0.0,0.0,100,0.00,,CLR,0.00,VWS V14.01,2013-08-31 07:39:00,
2013-08-31 03:45:00,68.7,68.7,29.87,SSW,205,0.0,0.0,100,0.00,,CLR,0.00,VWS V14.01,2013-08-31 07:45:00,
2013-08-31 03:50:00,68.7,68.7,29.88,SSW,205,0.0,0.0,100,0.00,,CLR,0.00,VWS V14.01,2013-08-31 07:50:00,
2013-08-31 03:55:00,68.9,68.9,29.88,SSW,205,0.0,0.0,100,0.00,,CLR,0.00,VWS V14.01,2013-08-31 07:55:00,
2013-08-31 04:00:00,69.0,69.0,29.87,SSW,205,0.0,0.0,100,0.00,,CLR,0.00,VWS V14.01,2013-08-31 08:00:00,
2013-08-31 04:05:00,69.2,69.2,29.87,SSW,205,0.0,0.0,100,0.00,,BKN100,0.00,VWS V14.01,2013-08-31 08:05:00,
2013-08-31 04:10:00,69.3,69.3,29.87,SSW,205,0.0,0.0,100,0.00,,BKN100,0.00,VWS V14.01,2013-08-31 08:10:00,
2013-08-31 04:15:00,69.4,69.4,29.87,SSW,205,0.0,0.0,100,0.00,,BKN100,0.00,VWS V14.01,2013-08-31 08:15:00,
2013-08-31 04:20:00,69.6,69.6,29.87,SSW,205,0.0,0.0,100,0.00,,BKN100,0.00,VWS V14.01,2013-08-31 08:20:00,
2013-08-31 04:25:00,69.7,69.7,29.87,SSW,205,0.0,0.0,100,0.00,,BKN100,0.00,VWS V14.01,2013-08-31 08:25:00,
2013-08-31 04:30:00,69.7,69.7,29.86,SSW,205,0.0,0.0,100,0.00,,BKN100,0.00,VWS V14.01,2013-08-31 08:30:00,
2013-08-31 04:35:00,69.8,69.8,29.87,SSW,205,0.0,0.0,100,0.00,,BKN100,0.00,VWS V14.01,2013-08-31 08:35:00,
2013-08-31 04:40:00,69.8,69.8,29.87,SSW,205,0.0,0.0,100,0.00,,BKN100,0.00,VWS V14.01,2013-08-31 08:40:00,
2013-08-31 04:45:00,69.7,69.7,29.87,SSW,205,0.0,0.0,100,0.00,,BKN100,0.00,VWS V14.01,2013-08-31 08:45:00,
2013-08-31 04:50:00,69.7,69.7,29.86,SSW,205,0.0,0.0,100,0.00,,BKN100,0.00,VWS V14.01,2013-08-31 08:50:00,
2013-08-31 04:55:00,69.7,69.7,29.86,SSW,205,0.0,0.0,100,0.00,,BKN100,0.00,VWS V14.01,2013-08-31 08:55:00,
2013-08-31 05:00:00,69.7,69.7,29.87,SSW,205,0.0,0.0,100,0.00,,SCT100,0.00,VWS V14.01,2013-08-31 09:00:00,
2013-08-31 05:05:00,69.7,69.7,29.87,SSW,205,0.0,0.0,100,0.00,,SCT100,0.00,VWS V14.01,2013-08-31 09:05:00,
2013-08-31 05:10:00,69.7,69.7,29.87,SSW,205,0.0,0.0,100,0.00,,SCT100,0.00,VWS V14.01,2013-08-31 09:10:00,
2013-08-31 05:15:00,69.7,69.7,29.87,SSW,205,0.0,0.0,100,0.00,,SCT100,0.00,VWS V14.01,2013-08-31 09:15:00,
2013-08-31 05:21:00,69.8,69.8,29.87,SSW,205,0.0,0.0,100,0.00,,SCT100,0.00,VWS V14.01,2013-08-31 09:21:00,
2013-08-31 05:26:00,69.8,69.8,29.87,SSW,205,0.0,0.0,100,0.00,,SCT100,0.00,VWS V14.01,2013-08-31 09:26:00,
2013-08-31 05:31:00,69.9,69.9,29.87,SSW,205,0.0,0.0,100,0.00,,SCT100,0.00,VWS V14.01,2013-08-31 09:31:00,
2013-08-31 05:36:00,70.0,70.0,29.87,SSW,205,0.0,0.0,100,0.00,,SCT100,0.00,VWS V14.01,2013-08-31 09:36:00,
2013-08-31 05:41:00,70.0,70.0,29.87,SSW,205,0.0,0.0,100,0.00,,SCT100,0.00,VWS V14.01,2013-08-31 09:41:00,
2013-08-31 05:46:00,69.9,69.9,29.86,SSW,205,0.0,0.0,100,0.00,,SCT100,0.00,VWS V14.01,2013-08-31 09:46:00,
2013-08-31 05:51:00,69.9,69.9,29.87,SSW,205,0.0,0.0,100,0.00,,SCT100,0.00,VWS V14.01,2013-08-31 09:51:00,
2013-08-31 05:56:00,70.0,70.0,29.87,SSW,205,0.0,0.0,100,0.00,,SCT100,0.00,VWS V14.01,2013-08-31 09:56:00,
2013-08-31 06:01:00,69.9,69.9,29.88,SSW,205,0.0,0.0,100,0.00,,FEW011,0.00,VWS V14.01,2013-08-31 10:01:00,
2013-08-31 06:06:00,69.9,69.9,29.87,SSW,205,0.0,0.0,100,0.00,,FEW011,0.00,VWS V14.01,2013-08-31 10:06:00,
2013-08-31 06:11:00,69.9,69.9,29.88,SSW,205,0.0,0.0,100,0.00,,FEW011,0.00,VWS V14.01,2013-08-31 10:11:00,
2013-08-31 06:16:00,70.0,70.0,29.88,SSW,205,0.0,0.0,100,0.00,,FEW011,0.00,VWS V14.01,2013-08-31 10:16:00,
2013-08-31 06:21:00,70.1,70.1,29.89,SSW,205,0.0,0.0,100,0.00,,FEW011,0.00,VWS V14.01,2013-08-31 10:21:00,
2013-08-31 06:26:00,70.2,70.2,29.87,SSW,205,0.0,0.0,100,0.00,,FEW011,0.00,VWS V14.01,2013-08-31 10:26:00,
2013-08-31 06:31:00,70.2,70.2,29.87,SSW,205,0.0,0.0,100,0.00,,FEW011,0.00,VWS V14.01,2013-08-31 10:31:00,
2013-08-31 06:36:00,70.1,70.1,29.87,SSW,205,0.0,0.0,100,0.00,,FEW011,0.00,VWS V14.01,2013-08-31 10:36:00,
2013-08-31 06:41:00,70.2,70.2,29.87,SSW,205,0.0,0.0,100,0.00,,FEW011,0.00,VWS V14.01,2013-08-31 10:41:00,
2013-08-31 06:46:00,70.2,70.2,29.88,SSW,205,0.0,0.0,100,0.00,,FEW011,0.00,VWS V14.01,2013-08-31 10:46:00,
2013-08-31 06:51:00,70.2,70.2,29.87,SSW,205,0.0,0.0,100,0.00,,FEW011,0.00,VWS V14.01,2013-08-31 10:51:00,
2013-08-31 06:57:00,70.2,70.2,29.87,SSW,205,0.0,0.0,100,0.00,,FEW011,0.00,VWS V14.01,2013-08-31 10:57:00,
2013-08-31 07:02:00,70.2,70.2,29.87,SSW,205,0.0,0.0,100,0.00,,,0.00,VWS V14.01,2013-08-31 11:02:00,
2013-08-31 07:07:00,70.4,70.4,29.87,SSW,205,0.0,0.0,100,0.00,,,0.00,VWS V14.01,2013-08-31 11:07:00,
2013-08-31 07:12:00,70.5,70.5,29.87,SSW,205,0.0,0.0,100,0.00,,,0.00,VWS V14.01,2013-08-31 11:12:00,
2013-08-31 07:17:00,70.5,70.5,29.87,SSW,205,0.0,0.0,100,0.00,,,0.00,VWS V14.01,2013-08-31 11:17:00,
2013-08-31 07:22:00,70.5,70.5,29.87,SSW,205,0.0,0.0,100,0.00,,,0.00,VWS V14.01,2013-08-31 11:22:00,
2013-08-31 07:27:00,70.7,70.7,29.87,SSW,205,0.0,0.0,100,0.00,,,0.00,VWS V14.01,2013-08-31 11:27:00,
2013-08-31 07:32:00,70.8,70.8,29.87,SSW,205,0.0,0.0,100,0.00,,,0.00,VWS V14.01,2013-08-31 11:32:00,
2013-08-31 07:37:00,70.8,70.8,29.87,SSW,205,0.0,0.0,100,0.00,,,0.00,VWS V14.01,2013-08-31 11:37:00,
2013-08-31 07:42:00,70.8,70.8,29.87,SSW,205,0.0,0.0,100,0.00,,,0.00,VWS V14.01,2013-08-31 11:42:00,
2013-08-31 07:47:00,70.8,70.8,29.87,SSW,205,0.0,0.0,100,0.00,,,0.00,VWS V14.01,2013-08-31 11:47:00,
2013-08-31 07:52:00,70.9,70.9,29.87,SSW,205,0.0,0.0,100,0.00,,,0.00,VWS V14.01,2013-08-31 11:52:00,
2013-08-31 07:57:00,71.0,71.0,29.88,SSW,205,0.0,0.0,100,0.00,,,0.00,VWS V14.01,2013-08-31 11:57:00,
2013-08-31 08:02:00,71.0,71.0,29.88,SSW,205,0.0,0.0,100,0.00,,,0.00,VWS V14.01,2013-08-31 12:02:00,
2013-08-31 08:07:00,71.2,71.2,29.87,SSW,205,0.0,0.0,100,0.00,,,0.00,VWS V14.01,2013-08-31 12:07:00,
2013-08-31 08:12:00,71.2,71.2,29.87,SSW,205,0.0,0.0,100,0.00,,,0.00,VWS V14.01,2013-08-31 12:12:00,
2013-08-31 08:18:00,71.4,71.4,29.88,SSW,205,0.0,0.0,100,0.00,,,0.00,VWS V14.01,2013-08-31 12:18:00,
2013-08-31 08:23:00,71.5,71.5,29.88,SSW,205,0.0,0.0,100,0.00,,,0.00,VWS V14.01,2013-08-31 12:23:00,
2013-08-31 08:28:00,71.5,71.5,29.88,SSW,205,0.0,0.0,100,0.00,,,0.00,VWS V14.01,2013-08-31 12:28:00,
2013-08-31 08:33:00,71.5,71.5,29.88,SSW,205,0.0,0.0,100,0.00,,,0.00,VWS V14.01,2013-08-31 12:33:00,
2013-08-31 08:38:00,71.5,71.5,29.87,SSW,205,0.0,0.0,100,0.00,,,0.00,VWS V14.01,2013-08-31 12:38:00,
2013-08-31 08:43:00,71.6,71.6,29.88,SSW,205,0.0,0.0,100,0.00,,,0.00,VWS V14.01,2013-08-31 12:43:00,
2013-08-31 08:48:00,71.6,71.6,29.88,WSW,256,0.0,5.5,100,0.00,,,0.00,VWS V14.01,2013-08-31 12:48:00,
2013-08-31 08:53:00,71.6,71.6,29.88,SSW,205,0.0,0.0,100,0.00,,,0.00,VWS V14.01,2013-08-31 12:53:00,
2013-08-31 08:58:00,71.9,71.9,29.88,SSW,211,0.0,6.3,100,0.00,,,0.00,VWS V14.01,2013-08-31 12:58:00,
2013-08-31 09:03:00,72.2,72.2,29.88,SW,217,0.0,0.0,100,0.00,,,0.00,VWS V14.01,2013-08-31 13:03:00,
2013-08-31 09:08:00,72.3,72.3,29.88,SW,226,3.4,4.8,100,0.00,,,0.00,VWS V14.01,2013-08-31 13:08:00,
2013-08-31 09:13:00,72.5,72.5,29.88,SW,226,0.0,0.0,100,0.00,,,0.00,VWS V14.01,2013-08-31 13:13:00,
2013-08-31 09:18:00,72.9,72.9,29.88,SW,226,0.0,0.0,100,0.00,,,0.00,VWS V14.01,2013-08-31 13:18:00,
2013-08-31 09:23:00,73.0,73.0,29.88,SW,226,0.0,0.0,100,0.00,,,0.00,VWS V14.01,2013-08-31 13:23:00,
2013-08-31 09:28:00,73.1,73.1,29.88,East,82,0.0,4.3,100,0.00,,,0.00,VWS V14.01,2013-08-31 13:28:00,
2013-08-31 09:33:00,73.4,73.3,29.89,East,82,0.0,0.0,100,0.00,,,0.00,VWS V14.01,2013-08-31 13:33:00,
2013-08-31 09:38:00,73.6,73.4,29.89,East,82,0.0,0.0,99,0.00,,,0.00,VWS V14.01,2013-08-31 13:38:00,
2013-08-31 09:43:00,73.5,72.9,29.89,East,82,0.0,0.0,98,0.00,,,0.00,VWS V14.01,2013-08-31 13:43:00,
2013-08-31 09:48:00,73.8,73.2,29.89,East,82,0.0,0.0,98,0.00,,,0.00,VWS V14.01,2013-08-31 13:48:00,
2013-08-31 09:53:00,73.9,73.1,29.88,East,82,0.0,0.0,97,0.00,,,0.00,VWS V14.01,2013-08-31 13:53:00,
2013-08-31 09:58:00,74.1,73.1,29.88,WSW,248,4.1,5.5,97,0.00,,,0.00,VWS V14.01,2013-08-31 13:58:00,
2013-08-31 10:03:00,74.2,72.8,29.88,SSE,153,0.0,0.0,96,0.00,,,0.00,VWS V14.01,2013-08-31 14:03:00,
2013-08-31 10:09:00,74.5,73.0,29.88,SSE,153,0.0,0.0,95,0.00,,,0.00,VWS V14.01,2013-08-31 14:09:00,
2013-08-31 10:14:00,74.8,72.8,29.88,WSW,248,0.0,0.0,94,0.00,,,0.00,VWS V14.01,2013-08-31 14:14:00,
2013-08-31 10:19:00,74.9,72.7,29.88,WSW,248,0.0,3.3,93,0.00,,,0.00,VWS V14.01,2013-08-31 14:19:00,
2013-08-31 10:24:00,75.1,72.8,29.88,West,264,0.0,0.0,93,0.00,,,0.00,VWS V14.01,2013-08-31 14:24:00,
2013-08-31 10:29:00,75.4,73.1,29.89,West,264,0.0,0.0,93,0.00,,,0.00,VWS V14.01,2013-08-31 14:29:00,
2013-08-31 10:34:00,75.7,73.3,29.88,West,264,0.0,0.0,92,0.00,,,0.00,VWS V14.01,2013-08-31 14:34:00,
2013-08-31 10:39:00,75.8,73.2,29.88,WNW,301,0.0,4.4,92,0.00,,,0.00,VWS V14.01,2013-08-31 14:39:00,
2013-08-31 10:44:00,76.0,73.2,29.88,WNW,301,0.0,0.0,91,0.00,,,0.00,VWS V14.01,2013-08-31 14:44:00,
2013-08-31 10:49:00,76.2,73.4,29.88,WNW,301,0.0,0.0,91,0.00,,,0.00,VWS V14.01,2013-08-31 14:49:00,
2013-08-31 10:54:00,76.2,73.3,29.88,WNW,301,0.0,0.0,91,0.00,,,0.00,VWS V14.01,2013-08-31 14:54:00,
2013-08-31 10:59:00,76.3,73.2,29.88,WNW,301,0.0,0.0,90,0.00,,,0.00,VWS V14.01,2013-08-31 14:59:00,
2013-08-31 11:04:00,76.3,73.2,29.88,WNW,301,0.0,0.0,90,0.00,,BKN015,0.00,VWS V14.01,2013-08-31 15:04:00,
2013-08-31 11:09:00,76.5,73.2,29.88,WNW,285,0.0,5.2,90,0.00,,BKN015,0.00,VWS V14.01,2013-08-31 15:09:00,
2013-08-31 11:14:00,76.7,73.4,29.88,West,263,0.0,0.0,90,0.00,,BKN015,0.00,VWS V14.01,2013-08-31 15:14:00,
2013-08-31 11:19:00,76.8,73.2,29.87,West,263,0.0,0.0,89,0.00,,BKN015,0.00,VWS V14.01,2013-08-31 15:19:00,
2013-08-31 11:24:00,77.1,73.8,29.87,West,263,0.0,0.0,90,0.00,,BKN015,0.00,VWS V14.01,2013-08-31 15:24:00,
2013-08-31 11:29:00,77.2,73.8,29.87,West,263,0.0,2.2,89,0.00,,BKN015,0.00,VWS V14.01,2013-08-31 15:29:00,
2013-08-31 11:34:00,77.4,73.9,29.87,West,263,0.0,0.0,89,0.00,,BKN015,0.00,VWS V14.01,2013-08-31 15:34:00,
2013-08-31 11:39:00,78.0,74.9,29.87,West,263,0.0,0.0,90,0.00,,BKN015,0.00,VWS V14.01,2013-08-31 15:39:00,
2013-08-31 11:44:00,78.0,74.4,29.87,West,263,0.0,0.0,89,0.00,,BKN015,0.00,VWS V14.01,2013-08-31 15:44:00,
2013-08-31 11:50:00,78.0,73.8,29.87,West,263,0.0,0.0,87,0.00,,BKN015,0.00,VWS V14.01,2013-08-31 15:50:00,
2013-08-31 11:55:00,78.2,73.4,29.87,SW,228,0.0,4.8,85,0.00,,BKN015,0.00,VWS V14.01,2013-08-31 15:55:00,
2013-08-31 12:00:00,78.4,74.0,29.87,SW,228,0.0,4.8,86,0.00,,BKN015,0.00,VWS V14.01,2013-08-31 16:00:00,
2013-08-31 12:05:00,78.5,74.6,29.87,SW,228,0.0,0.0,88,0.00,,BKN015,0.00,VWS V14.01,2013-08-31 16:05:00,
2013-08-31 12:10:00,78.7,74.7,29.87,SW,228,0.0,0.0,88,0.00,,BKN015,0.00,VWS V14.01,2013-08-31 16:10:00,
2013-08-31 12:15:00,78.8,74.4,29.87,SW,228,0.0,0.0,86,0.00,,BKN015,0.00,VWS V14.01,2013-08-31 16:15:00,
2013-08-31 12:20:00,79.0,74.0,29.87,SW,228,0.0,2.7,85,0.00,,BKN015,0.00,VWS V14.01,2013-08-31 16:20:00,
2013-08-31 12:25:00,79.4,73.7,29.87,SW,228,0.0,0.0,83,0.00,,BKN015,0.00,VWS V14.01,2013-08-31 16:25:00,
2013-08-31 12:30:00,79.8,74.3,29.87,SW,228,0.0,0.0,83,0.00,,BKN015,0.00,VWS V14.01,2013-08-31 16:30:00,
2013-08-31 12:35:00,80.0,73.9,29.87,NW,326,0.0,0.0,82,0.00,,BKN015,0.00,VWS V14.01,2013-08-31 16:35:00,
2013-08-31 12:40:00,80.2,74.0,29.86,NW,326,0.0,0.0,82,0.00,,BKN015,0.00,VWS V14.01,2013-08-31 16:40:00,
2013-08-31 12:45:00,80.3,74.1,29.86,SW,232,0.0,0.0,81,0.00,,BKN015,0.00,VWS V14.01,2013-08-31 16:45:00,
2013-08-31 12:50:00,80.3,73.9,29.86,SW,232,0.0,2.8,81,0.00,,BKN015,0.00,VWS V14.01,2013-08-31 16:50:00,
2013-08-31 12:55:00,80.5,74.7,29.86,SW,232,4.3,4.3,83,0.00,,BKN015,0.00,VWS V14.01,2013-08-31 16:55:00,
2013-08-31 13:00:00,80.6,74.2,29.86,North,4,3.0,7.9,81,0.00,,,0.00,VWS V14.01,2013-08-31 17:00:00,
2013-08-31 13:05:00,80.8,74.4,29.86,West,271,0.0,6.0,81,0.00,,,0.00,VWS V14.01,2013-08-31 17:05:00,
2013-08-31 13:10:00,80.8,73.8,29.86,West,271,0.0,6.0,79,0.00,,,0.00,VWS V14.01,2013-08-31 17:10:00,
2013-08-31 13:15:00,80.5,73.5,29.86,West,271,0.0,0.0,79,0.00,,,0.00,VWS V14.01,2013-08-31 17:15:00,
2013-08-31 13:20:00,80.6,74.6,29.86,WNW,294,0.0,4.9,82,0.00,,,0.00,VWS V14.01,2013-08-31 17:20:00,
2013-08-31 13:26:00,80.3,73.9,29.86,West,262,0.0,0.0,81,0.00,,,0.00,VWS V14.01,2013-08-31 17:26:00,
2013-08-31 13:31:00,80.4,73.8,29.85,West,259,0.0,8.2,80,0.00,,,0.00,VWS V14.01,2013-08-31 17:31:00,
2013-08-31 13:36:00,80.3,74.0,29.86,West,259,0.0,0.0,81,0.00,,,0.00,VWS V14.01,2013-08-31 17:36:00,
2013-08-31 13:41:00,80.2,74.6,29.86,West,259,0.0,0.0,83,0.00,,,0.00,VWS V14.01,2013-08-31 17:41:00,
2013-08-31 13:46:00,80.1,74.6,29.86,West,259,0.0,0.0,83,0.00,,,0.00,VWS V14.01,2013-08-31 17:46:00,
2013-08-31 13:51:00,80.0,74.6,29.86,West,259,0.0,0.0,84,0.00,,,0.00,VWS V14.01,2013-08-31 17:51:00,
2013-08-31 13:56:00,79.8,74.4,29.86,West,259,0.0,0.0,84,0.00,,,0.00,VWS V14.01,2013-08-31 17:56:00,
2013-08-31 14:01:00,79.7,74.3,29.86,West,259,0.0,0.0,84,0.00,,,0.00,VWS V14.01,2013-08-31 18:01:00,
2013-08-31 14:06:00,79.4,74.8,29.85,West,259,0.0,0.0,86,0.00,,,0.00,VWS V14.01,2013-08-31 18:06:00,
2013-08-31 14:11:00,79.1,74.1,29.85,West,259,0.0,3.1,85,0.00,,,0.00,VWS V14.01,2013-08-31 18:11:00,
2013-08-31 14:16:00,78.9,74.0,29.85,West,259,0.0,0.0,85,0.00,,,0.00,VWS V14.01,2013-08-31 18:16:00,
2013-08-31 14:21:00,78.7,73.7,29.85,West,259,0.0,0.0,85,0.00,,,0.00,VWS V14.01,2013-08-31 18:21:00,
2013-08-31 14:26:00,78.7,74.3,29.85,West,259,0.0,0.0,86,0.00,,,0.00,VWS V14.01,2013-08-31 18:26:00,
2013-08-31 14:31:00,78.4,74.0,29.85,West,259,0.0,0.0,86,0.00,,,0.00,VWS V14.01,2013-08-31 18:31:00,
2013-08-31 14:36:00,78.1,73.8,29.85,West,259,0.0,0.0,87,0.00,,,0.00,VWS V14.01,2013-08-31 18:36:00,
2013-08-31 14:41:00,78.2,74.5,29.85,West,259,0.0,0.0,88,0.00,,,0.00,VWS V14.01,2013-08-31 18:41:00,
2013-08-31 14:46:00,78.1,73.9,29.85,SW,236,0.0,3.1,87,0.00,,,0.00,VWS V14.01,2013-08-31 18:46:00,
2013-08-31 14:52:00,78.2,74.4,29.85,SW,236,3.0,3.1,88,0.00,,,0.00,VWS V14.01,2013-08-31 18:52:00,
2013-08-31 14:57:00,78.3,74.2,29.85,West,281,0.0,0.0,87,0.00,,,0.00,VWS V14.01,2013-08-31 18:57:00,
2013-08-31 15:02:00,78.5,74.6,29.85,West,281,0.0,0.0,88,0.00,,,0.00,VWS V14.01,2013-08-31 19:02:00,
2013-08-31 15:07:00,78.7,74.9,29.85,West,281,0.0,0.0,88,0.00,,,0.00,VWS V14.01,2013-08-31 19:07:00,
2013-08-31 15:12:00,78.5,74.5,29.85,West,281,0.0,2.7,88,0.00,,,0.00,VWS V14.01,2013-08-31 19:12:00,
2013-08-31 15:17:00,78.7,74.8,29.85,West,281,0.0,0.0,88,0.00,,,0.00,VWS V14.01,2013-08-31 19:17:00,
2013-08-31 15:22:00,78.5,74.7,29.85,West,281,0.0,0.0,88,0.00,,,0.00,VWS V14.01,2013-08-31 19:22:00,
2013-08-31 15:27:00,78.4,74.4,29.85,West,281,0.0,0.0,88,0.00,,,0.00,VWS V14.01,2013-08-31 19:27:00,
2013-08-31 15:32:00,78.2,73.7,29.85,West,281,0.0,0.0,86,0.00,,,0.00,VWS V14.01,2013-08-31 19:32:00,
2013-08-31 15:37:00,78.2,74.4,29.84,West,281,0.0,0.0,88,0.00,,,0.00,VWS V14.01,2013-08-31 19:37:00,
2013-08-31 15:42:00,78.1,74.5,29.84,West,281,0.0,0.0,89,0.00,,,0.00,VWS V14.01,2013-08-31 19:42:00,
2013-08-31 15:47:00,77.9,74.4,29.84,North,11,0.0,4.8,89,0.00,,,0.00,VWS V14.01,2013-08-31 19:47:00,
2013-08-31 15:52:00,77.9,74.7,29.84,North,11,0.0,4.8,90,0.00,,,0.00,VWS V14.01,2013-08-31 19:52:00,
2013-08-31 15:57:00,77.9,74.9,29.84,North,11,0.0,0.0,90,0.00,,,0.00,VWS V14.01,2013-08-31 19:57:00,
2013-08-31 16:02:00,77.9,75.0,29.84,North,11,0.0,0.0,91,0.00,,,0.00,VWS V14.01,2013-08-31 20:02:00,
2013-08-31 16:07:00,77.8,74.8,29.84,North,11,0.0,0.0,90,0.00,,,0.00,VWS V14.01,2013-08-31 20:07:00,
2013-08-31 16:12:00,77.8,74.8,29.84,North,11,0.0,0.0,90,0.00,,,0.00,VWS V14.01,2013-08-31 20:12:00,
2013-08-31 16:17:00,78.0,75.1,29.83,North,11,0.0,0.0,91,0.00,,,0.00,VWS V14.01,2013-08-31 20:17:00,
2013-08-31 16:23:00,78.0,75.2,29.83,North,11,0.0,0.0,91,0.00,,,0.00,VWS V14.01,2013-08-31 20:23:00,
2013-08-31 16:28:00,78.1,75.3,29.84,North,11,0.0,0.0,91,0.00,,,0.00,VWS V14.01,2013-08-31 20:28:00,
2013-08-31 16:33:00,78.3,75.6,29.83,North,11,0.0,0.0,91,0.00,,,0.00,VWS V14.01,2013-08-31 20:33:00,
2013-08-31 16:38:00,78.5,75.8,29.83,North,11,0.0,0.0,91,0.00,,,0.00,VWS V14.01,2013-08-31 20:38:00,
2013-08-31 16:43:00,78.7,76.0,29.83,North,11,0.0,0.0,91,0.00,,,0.00,VWS V14.01,2013-08-31 20:43:00,
2013-08-31 16:48:00,78.9,76.1,29.83,North,11,0.0,0.0,91,0.00,,,0.00,VWS V14.01,2013-08-31 20:48:00,
2013-08-31 16:53:00,79.0,76.1,29.83,North,11,0.0,0.0,91,0.00,,,0.00,VWS V14.01,2013-08-31 20:53:00,
2013-08-31 16:58:00,79.1,76.3,29.83,North,11,0.0,0.0,91,0.00,,,0.00,VWS V14.01,2013-08-31 20:58:00,
2013-08-31 17:03:00,79.2,76.3,29.83,North,11,0.0,0.0,91,0.00,,,0.00,VWS V14.01,2013-08-31 21:03:00,
2013-08-31 17:08:00,79.2,76.0,29.83,North,11,0.0,0.0,90,0.00,,,0.00,VWS V14.01,2013-08-31 21:08:00,
2013-08-31 17:13:00,79.4,76.4,29.83,North,11,0.0,0.0,91,0.00,,,0.00,VWS V14.01,2013-08-31 21:13:00,
2013-08-31 17:18:00,79.4,76.4,29.83,North,11,0.0,0.0,90,0.00,,,0.00,VWS V14.01,2013-08-31 21:18:00,
2013-08-31 17:23:00,79.3,76.2,29.83,North,11,0.0,0.0,90,0.00,,,0.00,VWS V14.01,2013-08-31 21:23:00,
2013-08-31 17:28:00,79.3,76.3,29.83,North,11,0.0,0.0,91,0.00,,,0.00,VWS V14.01,2013-08-31 21:28:00,
2013-08-31 17:33:00,79.2,76.3,29.83,North,11,0.0,0.0,91,0.00,,,0.00,VWS V14.01,2013-08-31 21:33:00,
2013-08-31 17:38:00,79.1,76.2,29.83,North,11,0.0,0.0,91,0.00,,,0.00,VWS V14.01,2013-08-31 21:38:00,
2013-08-31 17:43:00,79.1,76.1,29.83,North,11,0.0,0.0,90,0.00,,,0.00,VWS V14.01,2013-08-31 21:43:00,
2013-08-31 17:48:00,79.0,76.2,29.83,North,11,0.0,0.0,91,0.00,,,0.00,VWS V14.01,2013-08-31 21:48:00,
2013-08-31 17:53:00,78.9,76.1,29.82,North,11,0.0,0.0,91,0.00,,,0.00,VWS V14.01,2013-08-31 21:53:00,
2013-08-31 17:59:00,78.7,75.9,29.83,North,11,0.0,0.0,91,0.00,,,0.00,VWS V14.01,2013-08-31 21:59:00,
2013-08-31 18:04:00,78.5,75.9,29.83,North,11,0.0,0.0,92,0.00,,,0.00,VWS V14.01,2013-08-31 22:04:00,
2013-08-31 18:09:00,78.3,75.7,29.83,North,11,0.0,0.0,92,0.00,,,0.00,VWS V14.01,2013-08-31 22:09:00,
2013-08-31 18:14:00,78.2,75.6,29.83,North,11,0.0,0.0,92,0.00,,,0.00,VWS V14.01,2013-08-31 22:14:00,
2013-08-31 18:19:00,78.1,75.6,29.83,North,11,0.0,0.0,92,0.00,,,0.00,VWS V14.01,2013-08-31 22:19:00,
2013-08-31 18:24:00,78.1,75.6,29.83,North,11,0.0,0.0,92,0.00,,,0.00,VWS V14.01,2013-08-31 22:24:00,
2013-08-31 18:29:00,78.0,75.6,29.83,North,11,0.0,0.0,92,0.00,,,0.00,VWS V14.01,2013-08-31 22:29:00,
2013-08-31 18:34:00,77.9,75.5,29.83,North,11,0.0,0.0,92,0.00,,,0.00,VWS V14.01,2013-08-31 22:34:00,
2013-08-31 18:39:00,77.9,75.6,29.83,North,11,0.0,0.0,93,0.00,,,0.00,VWS V14.01,2013-08-31 22:39:00,
2013-08-31 18:44:00,77.7,75.4,29.83,North,11,0.0,0.0,93,0.00,,,0.00,VWS V14.01,2013-08-31 22:44:00,
2013-08-31 18:49:00,77.5,75.3,29.84,North,11,0.0,0.0,93,0.00,,,0.00,VWS V14.01,2013-08-31 22:49:00,
2013-08-31 18:54:00,77.2,75.0,29.84,North,11,0.0,0.0,93,0.00,,,0.00,VWS V14.01,2013-08-31 22:54:00,
2013-08-31 18:59:00,77.1,75.0,29.83,North,11,0.0,0.0,93,0.00,,,0.00,VWS V14.01,2013-08-31 22:59:00,
2013-08-31 19:04:00,77.0,74.9,29.84,North,11,0.0,0.0,93,0.00,,BKN034,0.00,VWS V14.01,2013-08-31 23:04:00,
2013-08-31 19:09:00,76.8,74.7,29.83,North,11,0.0,0.0,93,0.00,,BKN034,0.00,VWS V14.01,2013-08-31 23:09:00,
2013-08-31 19:14:00,76.7,74.7,29.83,North,11,0.0,0.0,93,0.00,,BKN034,0.00,VWS V14.01,2013-08-31 23:14:00,
2013-08-31 19:19:00,76.5,74.5,29.84,North,11,0.0,0.0,94,0.00,,BKN034,0.00,VWS V14.01,2013-08-31 23:19:00,
2013-08-31 19:24:00,76.4,74.4,29.83,North,11,0.0,0.0,94,0.00,,BKN034,0.00,VWS V14.01,2013-08-31 23:24:00,
2013-08-31 19:29:00,76.3,74.4,29.83,North,11,0.0,0.0,94,0.00,,BKN034,0.00,VWS V14.01,2013-08-31 23:29:00,
2013-08-31 19:35:00,76.0,74.1,29.83,North,11,0.0,0.0,94,0.00,,BKN034,0.00,VWS V14.01,2013-08-31 23:35:00,
2013-08-31 19:40:00,76.0,74.2,29.83,North,11,0.0,0.0,94,0.00,,BKN034,0.00,VWS V14.01,2013-08-31 23:40:00,
2013-08-31 19:45:00,75.8,74.0,29.83,North,11,0.0,0.0,94,0.00,,BKN034,0.00,VWS V14.01,2013-08-31 23:45:00,
2013-08-31 19:50:00,75.7,73.9,29.83,North,11,0.0,0.0,94,0.00,,BKN034,0.00,VWS V14.01,2013-08-31 23:50:00,
2013-08-31 19:55:00,75.6,73.9,29.84,North,11,0.0,0.0,94,0.00,,BKN034,0.00,VWS V14.01,2013-08-31 23:55:00,
2013-08-31 20:00:00,75.3,73.6,29.84,North,11,0.0,0.0,94,0.00,,BKN034,0.00,VWS V14.01,2013-09-01 00:00:00,
2013-08-31 20:05:00,75.3,73.7,29.84,North,11,0.0,0.0,95,0.00,,CLR,0.00,VWS V14.01,2013-09-01 00:05:00,
2013-08-31 20:10:00,75.1,73.5,29.84,North,11,0.0,0.0,95,0.00,,CLR,0.00,VWS V14.01,2013-09-01 00:10:00,
2013-08-31 20:15:00,75.0,73.5,29.83,North,11,0.0,0.0,95,0.00,,CLR,0.00,VWS V14.01,2013-09-01 00:15:00,
2013-08-31 20:20:00,74.9,73.4,29.84,North,11,0.0,0.0,95,0.00,,CLR,0.00,VWS V14.01,2013-09-01 00:20:00,
2013-08-31 20:25:00,74.8,73.4,29.84,North,11,0.0,0.0,95,0.00,,CLR,0.00,VWS V14.01,2013-09-01 00:25:00,
2013-08-31 20:30:00,74.6,73.2,29.84,North,11,0.0,0.0,95,0.00,,CLR,0.00,VWS V14.01,2013-09-01 00:30:00,
2013-08-31 20:35:00,74.4,73.1,29.84,North,11,0.0,0.0,96,0.00,,CLR,0.00,VWS V14.01,2013-09-01 00:35:00,
2013-08-31 20:40:00,74.2,72.9,29.84,North,11,0.0,0.0,96,0.00,,CLR,0.00,VWS V14.01,2013-09-01 00:40:00,
2013-08-31 20:45:00,74.2,73.0,29.84,North,11,0.0,0.0,96,0.00,,CLR,0.00,VWS V14.01,2013-09-01 00:45:00,
2013-08-31 20:50:00,74.1,72.9,29.84,North,11,0.0,0.0,96,0.00,,CLR,0.00,VWS V14.01,2013-09-01 00:50:00,
2013-08-31 20:55:00,74.0,72.8,29.84,North,11,0.0,0.0,96,0.00,,CLR,0.00,VWS V14.01,2013-09-01 00:55:00,
2013-08-31 21:00:00,73.9,72.8,29.84,North,11,0.0,0.0,96,0.00,,CLR,0.00,VWS V14.01,2013-09-01 01:00:00,
2013-08-31 21:06:00,73.6,72.6,29.85,North,11,0.0,0.0,96,0.00,,CLR,0.00,VWS V14.01,2013-09-01 01:06:00,
2013-08-31 21:11:00,73.6,72.6,29.84,North,11,0.0,0.0,97,0.00,,CLR,0.00,VWS V14.01,2013-09-01 01:11:00,
2013-08-31 21:16:00,73.5,72.6,29.85,North,11,0.0,0.0,97,0.00,,CLR,0.00,VWS V14.01,2013-09-01 01:16:00,
2013-08-31 21:21:00,73.4,72.5,29.85,North,11,0.0,0.0,97,0.00,,CLR,0.00,VWS V14.01,2013-09-01 01:21:00,
2013-08-31 21:26:00,73.2,72.3,29.85,North,11,0.0,0.0,97,0.00,,CLR,0.00,VWS V14.01,2013-09-01 01:26:00,
2013-08-31 21:31:00,73.1,72.3,29.85,North,11,0.0,0.0,97,0.00,,CLR,0.00,VWS V14.01,2013-09-01 01:31:00,
2013-08-31 21:36:00,73.0,72.2,29.86,North,11,0.0,0.0,98,0.00,,CLR,0.00,VWS V14.01,2013-09-01 01:36:00,
2013-08-31 21:41:00,72.9,72.2,29.86,North,11,0.0,0.0,98,0.00,,CLR,0.00,VWS V14.01,2013-09-01 01:41:00,
2013-08-31 21:46:00,72.8,72.1,29.86,North,11,0.0,0.0,98,0.00,,CLR,0.00,VWS V14.01,2013-09-01 01:46:00,
2013-08-31 21:51:00,72.7,72.1,29.86,North,11,0.0,0.0,98,0.00,,CLR,0.00,VWS V14.01,2013-09-01 01:51:00,
2013-08-31 21:56:00,72.7,72.1,29.87,North,11,0.0,0.0,98,0.00,,CLR,0.00,VWS V14.01,2013-09-01 01:56:00,
2013-08-31 22:01:00,72.6,72.0,29.87,North,11,0.0,0.0,98,0.00,,SCT065,0.00,VWS V14.01,2013-09-01 02:01:00,
2013-08-31 22:06:00,72.5,72.0,29.87,North,11,0.0,0.0,98,0.00,,SCT065,0.00,VWS V14.01,2013-09-01 02:06:00,
2013-08-31 22:11:00,72.4,71.9,29.87,North,11,0.0,0.0,98,0.00,,SCT065,0.00,VWS V14.01,2013-09-01 02:11:00,
2013-08-31 22:16:00,72.4,72.0,29.87,North,11,0.0,0.0,98,0.00,,SCT065,0.00,VWS V14.01,2013-09-01 02:16:00,
2013-08-31 22:21:00,72.4,72.0,29.88,North,11,0.0,0.0,99,0.00,,SCT065,0.00,VWS V14.01,2013-09-01 02:21:00,
2013-08-31 22:26:00,72.3,71.9,29.87,North,11,0.0,0.0,99,0.00,,SCT065,0.00,VWS V14.01,2013-09-01 02:26:00,
2013-08-31 22:31:00,72.3,72.0,29.87,North,11,0.0,0.0,99,0.00,,SCT065,0.00,VWS V14.01,2013-09-01 02:31:00,
2013-08-31 22:36:00,72.2,71.9,29.87,North,11,0.0,0.0,99,0.00,,SCT065,0.00,VWS V14.01,2013-09-01 02:36:00,
2013-08-31 22:42:00,72.2,72.0,29.87,North,11,0.0,0.0,99,0.00,,SCT065,0.00,VWS V14.01,2013-09-01 02:42:00,
2013-08-31 22:47:00,72.1,71.9,29.87,North,11,0.0,0.0,99,0.00,,SCT065,0.00,VWS V14.01,2013-09-01 02:47:00,
2013-08-31 22:52:00,72.2,72.1,29.88,North,11,0.0,0.0,100,0.00,,SCT065,0.00,VWS V14.01,2013-09-01 02:52:00,
2013-08-31 22:57:00,72.2,72.2,29.87,North,11,0.0,0.0,100,0.00,,SCT065,0.00,VWS V14.01,2013-09-01 02:57:00,
2013-08-31 23:02:00,72.1,72.1,29.87,North,11,0.0,0.0,100,0.00,,OVC110,0.00,VWS V14.01,2013-09-01 03:02:00,
2013-08-31 23:07:00,72.2,72.2,29.88,North,11,0.0,0.0,100,0.00,,OVC110,0.00,VWS V14.01,2013-09-01 03:07:00,
2013-08-31 23:12:00,72.1,72.1,29.87,North,11,0.0,0.0,100,0.00,,OVC110,0.00,VWS V14.01,2013-09-01 03:12:00,
2013-08-31 23:17:00,72.0,72.0,29.87,North,11,0.0,0.0,100,0.00,,OVC110,0.00,VWS V14.01,2013-09-01 03:17:00,
2013-08-31 23:22:00,72.0,72.0,29.87,North,11,0.0,0.0,100,0.00,,OVC110,0.00,VWS V14.01,2013-09-01 03:22:00,
2013-08-31 23:27:00,72.0,72.0,29.87,North,11,0.0,0.0,100,0.00,,OVC110,0.00,VWS V14.01,2013-09-01 03:27:00,
2013-08-31 23:32:00,71.9,71.9,29.86,North,11,0.0,0.0,100,0.00,,OVC110,0.00,VWS V14.01,2013-09-01 03:32:00,
2013-08-31 23:37:00,71.8,71.8,29.86,North,11,0.0,0.0,100,0.00,,OVC110,0.00,VWS V14.01,2013-09-01 03:37:00,
2013-08-31 23:42:00,71.7,71.7,29.86,North,11,0.0,0.0,100,0.00,,OVC110,0.00,VWS V14.01,2013-09-01 03:42:00,
2013-08-31 23:47:00,71.8,71.8,29.87,North,11,0.0,0.0,100,0.00,,OVC110,0.00,VWS V14.01,2013-09-01 03:47:00,
2013-08-31 23:52:00,71.8,71.8,29.87,North,11,0.0,0.0,100,0.00,,OVC110,0.00,VWS V14.01,2013-09-01 03:52:00,
2013-08-31 23:57:00,71.7,71.7,29.86,North,11,0.0,0.0,100,0.00,,OVC110,0.00,VWS V14.01,2013-09-01 03:57:00,